Location: Biggin Hill
(51.4163°N, 0.1095°W)
Time: 13:51:43
(UTC+00:00)

Daily predictions for brighter satellites

Satellite Brightness Start Highest point End
(mag) Time Altitude Azimuth Time Altitude Azimuth Time Altitude Azimuth
BREEZE-M DEB (TANK) 4.3 19:57:52 10° W 20:02:36 71° S 20:21:22 10° ESE
MetOp-B 4.3 20:16:27 10° SSE 20:21:42 60° ENE 20:27:00 10° N
ERS-2 3.7 20:19:15 10° N 20:22:42 41° WNW 20:26:08 10° SW
Cosmos 1602 3.7 20:20:42 10° N 20:24:35 73° E 20:28:26 10° SSE
BREEZE-M DEB (TANK) 1.2 20:22:56 10° W 20:25:28 55° S 20:27:28 10° E
Cosmos 1606 4.0 20:21:56 10° SSW 20:25:34 43° WNW 20:29:14 10° N
Cosmos 2278 Rocket 3.3 20:21:10 10° SSE 20:25:38 24° ESE 20:30:07 10° NE
USA 305 2.9 20:22:18 10° WNW 20:26:36 85° NNE 20:30:53 10° ESE
Spot 2 Rocket 4.1 20:22:41 10° SE 20:27:24 42° ENE 20:32:08 10° N
Cosmos 1782 3.1 20:24:36 10° SSE 20:28:26 46° E 20:32:16 10° NNE
Landsat 7 3.9 20:24:13 10° SSE 20:28:57 73° ENE 20:33:44 10° N
Cosmos 1844 Rocket 3.0 20:24:01 10° SW 20:29:35 74° WNW 20:35:13 10° NNE
IGS 5A 3.4 20:25:44 10° SSE 20:29:51 81° ENE 20:34:03 10° NNW
Cosmos 1242 Rocket 2.4 20:27:23 10° S 20:30:57 77° E 20:34:29 10° NNE
Gbstr 26 Del rocket 4.4 20:23:05 10° W 20:31:06 88° N 20:38:00 10° E
ERS-1 Rocket 3.9 20:30:36 10° SE 20:35:05 34° ENE 20:39:36 10° N
CZ-4C R/B 3.0 20:28:32 10° NW 20:35:33 89° NE 20:43:47 10° SE
Cosmos 1633 Rocket 3.1 20:33:56 10° N 20:38:22 86° E 20:42:47 10° S
BREEZE M DEB (TANK) 4.3 20:34:44 10° WSW 20:38:56 74° SSE 20:54:00 10° E
Akebono 3.8 20:39:44 10° NNW 20:42:13 80° ENE 20:43:57 14° SSE
ATLAS 5 CENTAUR R/B 3.2 20:39:38 10° NW 20:44:54 43° SW 20:51:01 10° SSE
USA 306 2.9 20:41:38 10° WNW 20:45:55 83° SSW 20:49:58 11° ESE
Cosmos 1470 Rocket 3.6 20:46:09 10° N 20:50:40 69° ENE 20:55:00 11° SSE
Cosmos 1328 Rocket 3.6 20:46:31 10° S 20:50:54 65° E 20:55:17 10° NNE
Cosmos 1812 3.4 20:47:20 10° SSE 20:50:55 37° E 20:54:31 10° NNE
Cosmos 1503 Rocket 4.1 20:45:58 10° SSW 20:51:08 80° WNW 20:56:25 10° NNE
Cosmos 1777 Rocket 4.2 20:47:29 10° S 20:52:27 48° ESE 20:57:27 10° NE
ARIANE 5 R/B 2.7 20:52:22 12° SSE 20:56:16 62° ENE 21:00:35 10° N
Cosmos 1666 3.1 20:54:04 10° N 20:57:41 45° ENE 21:00:28 15° SE
CRYOSAT 2 4.4 20:54:41 10° S 20:59:35 89° WSW 21:04:32 10° N
Cosmos 1844 4.5 20:54:14 10° SW 20:59:50 57° NW 21:05:26 10° NNE
CARTOSAT-1 3.7 20:56:42 13° SSE 21:00:28 63° ENE 21:04:45 10° N
Cosmos 1833 Rocket 2.7 20:56:25 10° NNW 21:02:06 86° WSW 21:07:04 14° SSE
Meteor 1-5 Rocket 4.1 20:58:09 10° N 21:03:36 75° ENE 21:08:22 13° SSE
Cosmos 1933 Rocket 3.6 21:00:35 10° N 21:04:54 64° ENE 21:08:26 15° SSE
BREEZE-M R/B 1.9 21:03:08 10° WSW 21:05:31 46° SSE 21:07:49 12° E
Cosmos 1536 4.1 21:04:35 10° N 21:08:06 27° ENE 21:10:33 16° ESE
Cosmos 1437 2.4 21:05:27 10° SSW 21:08:17 85° WNW 21:11:09 10° NNE
Cosmos 1709 Rocket 4.5 21:02:43 10° NNW 21:08:44 59° W 21:14:41 10° S
Cosmos 2184 Rocket 4.1 21:06:12 10° N 21:12:25 64° ENE 21:17:33 15° SSE
USA 307 3.0 21:08:17 10° WNW 21:12:31 66° SSW 21:15:38 18° SE
CZ-2C R/B 3.7 21:09:47 10° NNE 21:14:17 86° WNW 21:18:50 10° SSW
Cosmos 2074 Rocket 4.1 21:10:38 10° N 21:16:57 71° ENE 21:22:14 15° SSE
NOSS 3-4 (A) 3.9 21:10:57 10° NW 21:17:48 88° NE 21:24:06 16° SE
NOSS 3-4 (C) 3.9 21:11:04 10° NW 21:17:56 87° NE 21:24:13 16° SE
JB-3 4.4 21:15:06 10° NNE 21:18:57 56° E 21:21:59 15° S
USA 245 3.2 21:20:53 17° SSW 21:22:14 36° W 21:24:23 10° NNW
SJ 16-02 1.6 21:19:29 12° S 21:23:22 49° ESE 21:27:40 10° NNE
Nadezhda 1 Rocket 4.5 21:19:51 16° SSE 21:24:33 43° E 21:30:23 10° NNE
USA 308 3.1 21:21:54 10° WNW 21:26:06 56° SSW 21:28:43 22° SE
Cosmos 1500 4.2 21:24:01 10° NNW 21:27:36 42° W 21:30:59 11° SSW
SPOT 1/Viking Rocket 4.2 21:23:38 10° S 21:28:42 52° W 21:33:48 10° NNW
NOSS 3-3 (A) 4.0 21:23:01 10° SW 21:28:54 90° NW 21:35:45 10° NE
NOSS 3-3 (C) 4.0 21:23:07 10° SW 21:29:01 90° E 21:35:50 10° NE
ATLAS 2AS CENTAUR R/B 3.0 21:23:51 10° NW 21:31:24 72° NE 21:37:04 17° SE
Cosmos 1544 4.0 21:32:10 10° N 21:35:30 34° ENE 21:37:03 23° ESE
CREW DRAGON DEMO-1 DEB 3.5 21:33:17 10° W 21:35:39 28° SSW 21:35:56 28° SSW
Iridium 4 Rocket 3.8 21:30:58 13° S 21:36:08 82° E 21:42:05 10° N
Terra 1.8 21:33:01 21° SSE 21:36:14 73° ENE 21:41:01 10° NNW
USA 215 3.9 21:31:32 10° E 21:37:54 56° N 21:44:16 10° WNW
ERBS 3.5 21:37:17 10° NW 21:40:25 39° NNE 21:43:15 12° E
Cosmos 2082 Rocket 2.2 21:36:26 10° NNW 21:42:04 81° WSW 21:45:50 22° SSE
SPOT 5 3.1 21:38:33 18° S 21:42:23 76° WSW 21:47:43 10° NNW
Cosmos 158 Rocket 3.9 21:38:50 10° NNW 21:43:44 76° WSW 21:46:51 23° SSE
Cosmos 2112 Rocket 4.3 21:39:30 10° NNW 21:44:49 59° ENE 21:48:11 22° SE
Resurs 01 Rocket 3.9 21:42:11 10° SW 21:45:22 19° W 21:48:35 10° NW
Cosmos 2084 3.8 21:41:51 10° SW 21:46:00 66° NW 21:50:17 10° NE
Cosmos 2228 Rocket 3.1 21:45:34 22° S 21:48:18 64° E 21:52:45 10° NNE
Cosmos 44 3.7 21:42:56 10° NW 21:48:24 67° NE 21:51:59 21° ESE
COSMOS 2406 4.1 21:43:09 10° NW 21:48:27 42° WSW 21:52:38 16° S
Cosmos 2084 Rocket 3.9 21:52:21 10° NW 21:56:31 56° NE 21:59:14 21° ESE
Cosmos 1271 Rocket 2.9 21:54:20 18° SSW 21:57:15 78° WNW 22:01:18 10° N
Cosmos 2341 Rocket 4.4 21:53:59 10° N 22:00:17 55° ENE 22:04:08 24° SE
BREEZE-M DEB (TANK) 3.2 21:52:07 10° W 22:00:39 81° N 22:03:22 10° E
Meteor 1-27 Rocket 3.8 21:58:45 20° S 22:02:55 73° E 22:08:51 10° NNE
USA 305 3.9 22:02:28 10° WNW 22:06:16 32° SW 22:07:27 27° S
Cosmos 2278 Rocket 2.5 22:03:36 10° SW 22:09:14 69° WNW 22:14:55 10° NNE
SL-24 R/B - RUBIN 2 3.9 22:04:47 10° NW 22:10:27 90° SW 22:13:07 29° SE
Cosmos 1937 Rocket 4.2 22:09:32 28° SE 22:11:12 35° ESE 22:15:52 10° NE
Cosmos 1680 Rocket 3.5 22:06:41 10° NNW 22:12:02 81° WSW 22:14:52 29° SSE
ERS-1 Rocket 3.9 22:10:19 17° SSW 22:13:49 41° W 22:18:35 10° NNW
Cosmos 1869 Rocket 3.8 22:09:34 10° NNW 22:13:51 61° W 22:16:04 27° SSW
Cosmos 1943 Rocket 2.9 22:13:55 27° SE 22:15:43 33° ESE 22:20:41 10° NE
Cosmos 2369 Rocket 3.6 22:17:10 19° ESE 22:18:10 20° E 22:22:09 10° NE
Gbstr 26 Del rocket 4.1 22:11:02 10° WNW 22:18:39 80° SSW 22:23:48 17° ESE
Cosmos 1238 Rocket 4.0 22:16:06 10° N 22:22:23 64° ENE 22:25:13 30° SSE
CZ-4C R/B 4.2 22:17:32 10° WNW 22:23:46 30° WSW 22:28:58 16° SSW
USA 306 4.2 22:21:58 10° W 22:25:27 25° SW 22:26:02 24° SSW
Cosmos 1340 Rocket 3.0 22:25:31 10° NNW 22:29:35 67° W 22:31:03 37° S
Okean 1 3.7 22:29:36 39° SE 22:30:27 46° E 22:34:17 10° NNE
Cosmos 1818 3.5 22:25:53 10° NW 22:31:25 88° NE 22:34:12 31° SE
Cosmos 1707 Rocket 3.5 22:32:59 37° S 22:34:42 82° E 22:39:09 10° NNE
DNEPR-1 R/B 4.4 22:34:46 32° S 22:36:45 43° ESE 22:41:27 10° NE
SL-8 Rocket 4.0 22:31:53 10° N 22:38:16 78° E 22:41:32 31° SSE
ALOS 2 3.4 22:41:06 29° ESE 22:42:45 42° ENE 22:46:55 10° N
Cosmos 1536 4.2 22:40:55 10° NNW 22:44:32 32° W 22:46:16 22° SW
Cosmos 1743 3.3 22:44:41 10° NNW 22:48:26 49° W 22:49:32 36° SW
Meteor 2-4 Rocket 4.5 22:47:04 29° SE 22:49:07 38° E 22:54:17 10° NNE
Cosmos 1898 Rocket 3.5 22:47:29 26° SSW 22:50:32 90° WNW 22:55:56 10° NNE
SL-27 R/B 4.3 22:50:10 10° N 22:52:46 21° NE 22:53:51 18° E
Cosmos 1975 2.7 22:55:38 10° N 22:59:38 77° E 23:00:28 53° SSE
RESURS DK-1 3.2 22:57:47 10° NNW 23:01:49 44° NE 23:03:31 29° ESE
SJ 16-02 3.4 22:58:30 10° WSW 23:02:12 25° NW 23:05:55 10° N
Cosmos 1733 Rocket 3.4 22:59:22 10° NNW 23:03:36 55° W 23:04:54 39° SSW
Cosmos 990 Rocket 4.4 23:00:01 18° SW 23:03:49 61° WNW 23:09:04 10° NNE
Cosmos 864 Rocket 4.4 22:59:26 10° N 23:05:39 86° W 23:08:29 34° S
Cosmos 1461 3.4 23:07:22 44° SSE 23:07:59 47° ESE 23:12:26 10° NE
Cosmos 2297 3.7 23:04:38 24° SSW 23:08:10 85° WNW 23:13:54 10° NNE
SeaSat 1 4.2 23:05:04 10° ENE 23:08:15 17° ESE 23:08:32 17° ESE
Cosmos 1959 Rocket 4.5 23:02:08 10° NNW 23:08:24 81° W 23:11:16 34° S
Cosmos 372 Rocket 4.1 23:07:02 41° SSE 23:08:32 58° ESE 23:13:32 10° NNE
Cosmos 2242 Rocket 4.2 23:09:01 37° ESE 23:09:54 41° E 23:14:07 10° NNE
Cosmos 1900 4.3 23:09:19 27° SW 23:12:08 89° ESE 23:17:12 10° NE
Terra 4.0 23:11:54 12° SW 23:14:32 17° W 23:17:40 10° NW
ERBS 2.8 23:13:23 10° WNW 23:16:00 45° W 23:16:00 45° W
Cosmos 494 Rocket 4.5 23:12:33 10° NNW 23:17:40 53° ENE 23:20:07 28° ESE
Cosmos 1908 Rocket 3.5 23:14:01 10° N 23:18:33 84° E 23:19:43 50° SSE
Meteor 1-18 Rocket 4.1 23:16:27 35° SSW 23:18:55 89° W 23:24:32 10° NNE
USA 215 3.3 23:14:07 10° ESE 23:20:40 84° NNE 23:27:15 10° WNW
ATLAS 2AS CENTAUR R/B 3.6 23:15:23 10° NW 23:21:53 36° WSW 23:24:29 27° SSW
Cosmos 2082 Rocket 4.2 23:22:08 10° WNW 23:25:16 15° W 23:27:41 12° SW
Cosmos 1867 4.2 23:25:56 35° SE 23:26:49 38° ESE 23:31:50 10° NE
Cosmos 44 Rocket 4.2 23:22:24 10° NW 23:27:32 50° NE 23:31:23 17° ESE
Cosmos 1125 Rocket 4.4 23:26:49 29° SE 23:27:54 32° ESE 23:32:28 10° NE
Cosmos 2181 Rocket 4.2 23:29:26 28° SSW 23:32:43 64° WNW 23:38:49 10° N
SAR-Lupe-2 3.5 23:29:14 10° NNE 23:32:49 66° ESE 23:32:57 65° ESE
Cosmos 1378 4.0 23:34:53 35° E 23:35:03 35° E 23:38:28 10° NNE
Cosmos 2344 4.3 23:28:38 10° NW 23:37:30 83° NE 23:49:51 10° SE
ATLAS CENTAUR R/B 2.8 23:38:29 21° E 23:38:29 21° E 23:40:34 10° ENE
Cosmos 2366 rocket 4.4 23:31:52 10° NNW 23:37:49 52° W 23:40:37 30° SSW
Cosmos 1821 Rocket 4.0 23:32:04 10° N 23:38:31 81° E 23:41:25 35° SSE
USA 281 4.5 23:38:21 10° ESE 23:44:13 36° NE 23:50:08 10° NNW
Cosmos 1703 Rocket 3.5 23:48:52 54° SSW 23:49:51 88° W 23:54:19 10° N
Cosmos 1782 Rocket 3.5 23:45:53 10° NNW 23:50:22 84° W 23:51:22 54° S
Okean 3 3.8 23:50:46 46° SE 23:51:30 52° E 23:55:38 10° NNE
Cosmos 1937 Rocket 4.5 23:49:38 18° WSW 23:53:05 42° WNW 23:58:02 10° NNE
NOSS 2-1 (C) 4.3 23:48:38 10° NW 23:53:07 65° NE 23:58:29 14° ESE
Lacrosse 5 3.8 23:54:51 14° ESE 23:54:51 14° ESE 23:56:56 10° E
